^^
Grace C. Lehan Memorial Weather Station Historical Data
Daily Summary for January 25, 2021 Units:  Metric    English   Both
Daily Weekly Monthly Yearly
  High: Low: Average:
Temperature: 12.2 °C 10.2 °C 11.3 °C
Dew Point: 11.6 °C 9.4 °C 10.6 °C
Humidity: 96% 90% 95%
Wind Speed: 1.6km/h 0km/h 0.2km/h
Wind Gust: 20.9km/h - -
Wind- - SSE
Pressure: 1020.5 hPa 1010 hPa -
Precipitation: 9.4 mm    
 
 
Tabular Data for January 25, 2021
Time Temperature Dew Point Pressure Wind Wind Speed Wind Gust Humidity Rainfall Rate (Hourly) solar
00:00 11.3 °C 9.7 °C 1020.5 hPa Calm     90% 0.76 mm 0 W/m2
00:09 11.3 °C 9.7 °C 1020.2 hPa Calm     90% 0.76 mm 0 W/m2
00:14 11.2 °C 9.6 °C 1020.2 hPa Calm     90% 0.76 mm 0 W/m2
00:19 11.1 °C 9.5 °C 1020.2 hPa Calm     90.1% 0.76 mm 0 W/m2
00:24 11.1 °C 9.7 °C 1020.2 hPa Calm     91% 0.76 mm 0 W/m2
00:29 11 °C 9.6 °C 1020.2 hPa Calm     91% 0.76 mm 0 W/m2
00:34 11.1 °C 9.6 °C 1020.2 hPa Calm     91% 0.76 mm 0 W/m2
00:39 11.1 °C 9.6 °C 1020.2 hPa Calm     91% 0.51 mm 0 W/m2
00:44 11 °C 9.6 °C 1020.2 hPa Calm     91% 0.51 mm 0 W/m2
00:49 10.9 °C 9.6 °C 1020.2 hPa Calm     91% 0.51 mm 0 W/m2
00:54 10.9 °C 9.6 °C 1020.2 hPa Calm     91.6% 0.51 mm 0 W/m2
00:59 10.8 °C 9.6 °C 1020.2 hPa Calm     92% 0.76 mm 0 W/m2
01:04 10.8 °C 9.6 °C 1020.2 hPa Calm     92% 0.76 mm 0 W/m2
01:09 10.8 °C 9.5 °C 1020.2 hPa Calm     92% 0.76 mm 0 W/m2
01:14 10.7 °C 9.5 °C 1020.2 hPa Calm     92% 0.76 mm 0 W/m2
01:19 10.7 °C 9.5 °C 1019.9 hPa Calm     92% 1.02 mm 0 W/m2
01:24 10.7 °C 9.5 °C 1019.9 hPa Calm     92% 1.02 mm 0 W/m2
01:29 10.7 °C 9.5 °C 1019.5 hPa Calm     92% 1.02 mm 0 W/m2
01:34 10.7 °C 9.6 °C 1019.5 hPa Calm     92.9% 1.27 mm 0 W/m2
01:39 10.7 °C 9.6 °C 1019.5 hPa Calm   1.6 km/h 93% 1.27 mm 0 W/m2
01:44 10.7 °C 9.6 °C 1019.5 hPa Calm   1.6 km/h 93% 1.27 mm 0 W/m2
01:49 10.7 °C 9.6 °C 1019.5 hPa Calm   1.6 km/h 93% 1.27 mm 0 W/m2
01:54 10.6 °C 9.6 °C 1019.5 hPa Calm   1.6 km/h 93% 1.52 mm 0 W/m2
01:59 10.6 °C 9.5 °C 1019.5 hPa Calm   1.6 km/h 93% 1.78 mm 0 W/m2
02:04 10.5 °C 9.4 °C 1019.2 hPa Calm   1.6 km/h 93% 1.78 mm 0 W/m2
02:09 10.5 °C 9.4 °C 1019.2 hPa Calm     93% 1.52 mm 0 W/m2
02:14 10.5 °C 9.4 °C 1019.2 hPa Calm     93% 1.78 mm 0 W/m2
02:19 10.5 °C 9.4 °C 1019.2 hPa Calm     93% 2.03 mm 0 W/m2
02:24 10.5 °C 9.6 °C 1019.2 hPa Calm     93.9% 2.03 mm 0 W/m2
02:29 10.5 °C 9.6 °C 1018.8 hPa Calm     94% 2.29 mm 0 W/m2
02:34 10.5 °C 9.6 °C 1018.8 hPa Calm     94% 2.29 mm 0 W/m2
02:39 10.6 °C 9.6 °C 1018.8 hPa Calm     94% 2.29 mm 0 W/m2
02:44 10.6 °C 9.6 °C 1018.8 hPa Calm     94% 2.54 mm 0 W/m2
02:49 10.5 °C 9.6 °C 1018.8 hPa Calm     94% 2.79 mm 0 W/m2
02:54 10.6 °C 9.6 °C 1018.8 hPa Calm     94% 3.05 mm 0 W/m2
02:59 10.6 °C 9.6 °C 1018.8 hPa Calm     94% 3.3 mm 0 W/m2
03:04 10.5 °C 9.6 °C 1018.5 hPa Calm     94% 3.3 mm 0 W/m2
03:09 10.5 °C 9.6 °C 1018.5 hPa Calm     94% 3.05 mm 0 W/m2
03:14 10.5 °C 9.6 °C 1018.5 hPa Calm     94% 3.3 mm 0 W/m2
03:19 10.5 °C 9.6 °C 1018.5 hPa Calm     94% 3.56 mm 0 W/m2
03:24 10.5 °C 9.6 °C 1018.5 hPa Calm     94% 3.81 mm 0 W/m2
03:29 10.5 °C 9.6 °C 1018.2 hPa Calm     94% 4.06 mm 0 W/m2
03:34 10.5 °C 9.6 °C 1018.2 hPa Calm     94% 4.06 mm 0 W/m2
03:39 10.5 °C 9.6 °C 1018.2 hPa Calm     94% 3.3 mm 0 W/m2
03:44 10.6 °C 9.6 °C 1017.8 hPa Calm     94% 3.56 mm 0 W/m2
03:49 10.6 °C 9.6 °C 1017.8 hPa Calm     94% 3.56 mm 0 W/m2
03:54 10.6 °C 9.6 °C 1017.8 hPa Calm     94% 3.56 mm 0 W/m2
03:59 10.6 °C 9.7 °C 1017.5 hPa Calm     94.1% 3.56 mm 0 W/m2
04:09 10.6 °C 9.8 °C 1017.5 hPa Calm     95% 3.81 mm 0 W/m2
04:14 10.6 °C 9.8 °C 1017.5 hPa Calm     95% 3.81 mm 0 W/m2
04:19 10.6 °C 9.8 °C 1017.5 hPa Calm     95% 3.81 mm 0 W/m2
04:24 10.6 °C 9.8 °C 1017.2 hPa Calm     95% 4.06 mm 0 W/m2
04:29 10.6 °C 9.8 °C 1017.2 hPa Calm     95% 4.06 mm 0 W/m2
04:34 10.6 °C 9.8 °C 1017.2 hPa Calm     95% 4.06 mm 0 W/m2
04:39 10.7 °C 9.9 °C 1017.2 hPa Calm     95% 1.27 mm 0 W/m2
04:44 10.7 °C 9.9 °C 1017.2 hPa Calm     95% 1.27 mm 0 W/m2
04:49 10.7 °C 9.9 °C 1016.8 hPa Calm     95% 1.27 mm 0 W/m2
04:53 10.7 °C 9.9 °C 1016.8 hPa Calm     95% 1.27 mm 0 W/m2
04:59 10.7 °C 9.9 °C 1016.8 hPa Calm     95% 1.27 mm 0 W/m2
05:04 10.7 °C 9.9 °C 1016.8 hPa Calm     95% 1.27 mm 0 W/m2
05:09 10.8 °C 10 °C 1016.8 hPa Calm     95% 0.25 mm 0 W/m2
05:14 10.8 °C 10.1 °C 1016.8 hPa Calm     95% 0.25 mm 0 W/m2
05:19 10.8 °C 10.1 °C 1016.8 hPa Calm     95% 0.51 mm 0 W/m2
05:24 10.8 °C 10.1 °C 1016.8 hPa Calm     95% 0.51 mm 0 W/m2
05:29 10.8 °C 10.1 °C 1016.5 hPa Calm     95% 0.51 mm 0 W/m2
05:34 10.8 °C 10.1 °C 1016.5 hPa Calm     95% 0.51 mm 0 W/m2
05:39 10.8 °C 10.1 °C 1016.5 hPa Calm     95% 0.51 mm 0 W/m2
05:44 10.8 °C 10.1 °C 1016.5 hPa Calm     95% 0.51 mm 0 W/m2
05:49 10.9 °C 10.1 °C 1016.5 hPa Calm     95% 0.51 mm 0 W/m2
05:54 10.9 °C 10.1 °C 1016.5 hPa Calm     95% 0.51 mm 0 W/m2
05:59 10.9 °C 10.1 °C 1016.5 hPa Calm     95% 0.51 mm 0 W/m2
06:04 10.9 °C 10.1 °C 1016.5 hPa Calm     95% 0.51 mm 0 W/m2
06:09 10.9 °C 10.1 °C 1016.8 hPa Calm   1.6 km/h 95% 0.76 mm 0 W/m2
06:14 10.9 °C 10.1 °C 1016.8 hPa Calm   1.6 km/h 95% 1.02 mm 0 W/m2
06:19 10.8 °C 10.1 °C 1016.8 hPa NNW 0.2 km/h 1.6 km/h 95% 1.27 mm 0 W/m2
06:24 10.8 °C 10.1 °C 1016.8 hPa NNE 0.3 km/h 1.6 km/h 95% 1.27 mm 0 W/m2
06:29 10.8 °C 10.1 °C 1016.5 hPa NE 0.3 km/h 1.6 km/h 95% 1.52 mm 0 W/m2
06:34 10.9 °C 10.1 °C 1016.8 hPa NE 0.3 km/h 3.2 km/h 95% 1.52 mm 0 W/m2
06:39 10.9 °C 10.2 °C 1016.8 hPa Calm   3.2 km/h 95% 1.27 mm 0 W/m2
06:44 10.9 °C 10.2 °C 1016.5 hPa Calm   3.2 km/h 95% 1.52 mm 0 W/m2
06:49 10.9 °C 10.3 °C 1016.5 hPa Calm   3.2 km/h 95.6% 1.52 mm 0 W/m2
06:54 11 °C 10.4 °C 1016.1 hPa Calm   3.2 km/h 96% 1.52 mm 0 W/m2
06:59 11 °C 10.3 °C 1015.8 hPa NE 0.8 km/h 3.2 km/h 95.7% 1.52 mm 0 W/m2
07:04 11 °C 10.3 °C 1015.8 hPa Calm   3.2 km/h 95.3% 1.52 mm 0 W/m2
07:09 11.1 °C 10.3 °C 1016.1 hPa Calm     95.5% 1.52 mm 0 W/m2
07:14 11.1 °C 10.4 °C 1016.1 hPa Calm     96% 1.52 mm 0 W/m2
07:19 11.1 °C 10.5 °C 1015.8 hPa Calm     96% 1.52 mm 0 W/m2
07:24 11.1 °C 10.5 °C 1016.1 hPa Calm     96% 1.52 mm 0 W/m2
07:29 11.2 °C 10.6 °C 1016.1 hPa Calm     96% 1.52 mm 0 W/m2
07:34 11.2 °C 10.6 °C 1016.1 hPa Calm     96% 1.52 mm 0 W/m2
07:39 11.3 °C 10.7 °C 1016.1 hPa Calm   1.6 km/h 96% 0.25 mm 5 W/m2
07:44 11.4 °C 10.8 °C 1015.8 hPa Calm   1.6 km/h 96% 0.25 mm 5 W/m2
07:49 11.4 °C 10.8 °C 1015.8 hPa Calm   1.6 km/h 96% 0.25 mm 5 W/m2
07:54 11.4 °C 10.8 °C 1015.8 hPa Calm   1.6 km/h 96% 0.25 mm 0 W/m2
07:59 11.4 °C 10.8 °C 1015.8 hPa Calm   1.6 km/h 96% 0.25 mm 5 W/m2
08:00 11.4 °C 10.8 °C 1015.8 hPa Calm   1.6 km/h 96% 0.25 mm 5 W/m2
08:09 11.3 °C 10.7 °C 1015.5 hPa Calm   1.6 km/h 96% 0 mm 7 W/m2
08:14 11.3 °C 10.7 °C 1015.5 hPa Calm   1.6 km/h 96% 0 mm 9 W/m2
08:19 11.3 °C 10.7 °C 1015.5 hPa Calm   1.6 km/h 96% 0 mm 9 W/m2
08:24 11.2 °C 10.6 °C 1015.5 hPa Calm   1.6 km/h 96% 0 mm 5 W/m2
08:29 11.2 °C 10.6 °C 1015.1 hPa ENE 0.2 km/h 1.6 km/h 96% 0 mm 7 W/m2
08:34 11.2 °C 10.6 °C 1015.5 hPa Calm   1.6 km/h 96% 0 mm 5 W/m2
08:39 11.2 °C 10.6 °C 1015.5 hPa ENE 0.2 km/h 1.6 km/h 96% 0 mm 12 W/m2
08:44 11.2 °C 10.6 °C 1015.5 hPa ENE 0.2 km/h 3.2 km/h 96% 0 mm 14 W/m2
08:49 11.2 °C 10.6 °C 1015.5 hPa North 0.5 km/h 3.2 km/h 96% 0 mm 19 W/m2
08:54 11.2 °C 10.6 °C 1015.5 hPa Calm   3.2 km/h 96% 0 mm 18 W/m2
08:59 11.2 °C 10.6 °C 1015.8 hPa WNW 0.2 km/h 3.2 km/h 96% 0 mm 21 W/m2
09:04 11.2 °C 10.6 °C 1015.5 hPa NNW 0.3 km/h 3.2 km/h 96% 0 mm 21 W/m2
09:09 11.2 °C 10.6 °C 1015.5 hPa NNW 0.2 km/h 1.6 km/h 96% 0 mm 19 W/m2
09:14 11.2 °C 10.6 °C 1015.5 hPa North 0.2 km/h 1.6 km/h 96% 0 mm 23 W/m2
09:19 11.2 °C 10.6 °C 1015.5 hPa Calm   1.6 km/h 96% 0 mm 21 W/m2
09:24 11.2 °C 10.6 °C 1015.5 hPa North 0.2 km/h 1.6 km/h 96% 0 mm 21 W/m2
09:29 11.2 °C 10.6 °C 1015.5 hPa Calm   1.6 km/h 96% 0 mm 23 W/m2
09:34 11.2 °C 10.6 °C 1015.5 hPa Calm   1.6 km/h 96% 0 mm 32 W/m2
09:39 11.3 °C 10.7 °C 1015.1 hPa Calm     96% 0 mm 39 W/m2
09:44 11.3 °C 10.7 °C 1015.1 hPa Calm     96% 0 mm 35 W/m2
09:49 11.3 °C 10.7 °C 1015.1 hPa Calm   3.2 km/h 96% 0 mm 26 W/m2
09:54 11.3 °C 10.7 °C 1015.1 hPa Calm   3.2 km/h 96% 0 mm 33 W/m2
09:59 11.3 °C 10.7 °C 1015.1 hPa Calm   3.2 km/h 96% 0 mm 33 W/m2
10:04 11.3 °C 10.7 °C 1015.1 hPa Calm   3.2 km/h 96% 0 mm 46 W/m2
10:09 11.4 °C 10.8 °C 1015.1 hPa Calm   1.6 km/h 96% 0 mm 49 W/m2
10:14 11.3 °C 10.7 °C 1015.1 hPa Calm   1.6 km/h 96% 0 mm 60 W/m2
10:19 11.4 °C 10.8 °C 1014.8 hPa NNW 0.2 km/h 3.2 km/h 96% 0 mm 58 W/m2
10:24 11.4 °C 10.8 °C 1014.8 hPa NNW 0.2 km/h 3.2 km/h 96% 0 mm 49 W/m2
10:29 11.4 °C 10.8 °C 1014.8 hPa Calm   3.2 km/h 96% 0 mm 49 W/m2
10:34 11.4 °C 10.8 °C 1014.8 hPa Calm   3.2 km/h 96% 0 mm 53 W/m2
10:39 11.4 °C 10.8 °C 1014.8 hPa NNW 0.3 km/h 3.2 km/h 96% 0 mm 47 W/m2
10:44 11.4 °C 10.8 °C 1014.8 hPa Calm   3.2 km/h 96% 0 mm 46 W/m2
10:49 11.4 °C 10.8 °C 1014.8 hPa NNW 0.3 km/h 3.2 km/h 96% 0 mm 49 W/m2
10:54 11.4 °C 10.8 °C 1014.8 hPa Calm   3.2 km/h 96% 0 mm 70 W/m2
10:59 11.5 °C 10.9 °C 1014.8 hPa Calm   3.2 km/h 96% 0 mm 76 W/m2
11:04 11.6 °C 10.9 °C 1014.4 hPa Calm   3.2 km/h 96% 0 mm 76 W/m2
11:09 11.6 °C 11 °C 1014.4 hPa Calm     96% 0 mm 90 W/m2
11:14 11.6 °C 11 °C 1014.4 hPa Calm     96% 0 mm 84 W/m2
11:19 11.7 °C 11.1 °C 1014.4 hPa NNW 0.5 km/h 4.8 km/h 96% 0 mm 83 W/m2
11:24 11.7 °C 11.1 °C 1014.4 hPa NNW 0.5 km/h 4.8 km/h 96% 0 mm 84 W/m2
11:29 11.7 °C 11.1 °C 1014.4 hPa Calm   4.8 km/h 96% 0 mm 79 W/m2
11:34 11.7 °C 11.1 °C 1014.4 hPa Calm   4.8 km/h 96% 0 mm 93 W/m2
11:39 11.7 °C 11.1 °C 1014.1 hPa Calm     96% 0 mm 93 W/m2
11:44 11.8 °C 11.2 °C 1014.1 hPa NNW 0.2 km/h 1.6 km/h 96% 0 mm 95 W/m2
11:49 11.8 °C 11.2 °C 1014.1 hPa Calm   1.6 km/h 96% 0 mm 90 W/m2
11:54 11.9 °C 11.3 °C 1014.1 hPa Calm   1.6 km/h 96% 0 mm 65 W/m2
11:59 11.9 °C 11.3 °C 1014.1 hPa Calm   1.6 km/h 96% 0 mm 70 W/m2
12:00 11.9 °C 11.3 °C 1014.1 hPa Calm   1.6 km/h 96% 0 mm 76 W/m2
12:09 11.9 °C 11.3 °C 1013.8 hPa Calm     96% 0 mm 107 W/m2
12:14 11.9 °C 11.3 °C 1014.1 hPa NNW 0.2 km/h 1.6 km/h 96% 0 mm 127 W/m2
12:19 12.1 °C 11.4 °C 1014.1 hPa NNW 0.3 km/h 3.2 km/h 96% 0 mm 127 W/m2
12:24 12.1 °C 11.4 °C 1014.1 hPa Calm   3.2 km/h 96% 0 mm 84 W/m2
12:29 12.1 °C 11.4 °C 1013.8 hPa Calm   3.2 km/h 96% 0 mm 81 W/m2
12:34 12.1 °C 11.5 °C 1013.8 hPa Calm   3.2 km/h 96% 0 mm 95 W/m2
12:39 12.1 °C 11.5 °C 1013.8 hPa Calm     96% 0 mm 102 W/m2
12:44 12.1 °C 11.4 °C 1013.8 hPa North 0.2 km/h 1.6 km/h 96% 0 mm 120 W/m2
12:49 12.1 °C 11.5 °C 1013.8 hPa Calm   1.6 km/h 96% 0 mm 120 W/m2
12:54 12.2 °C 11.6 °C 1013.8 hPa NNW 0.2 km/h 8 km/h 96% 0 mm 114 W/m2
12:59 12.2 °C 11.6 °C 1013.4 hPa NNW 0.3 km/h 8 km/h 96% 0 mm 123 W/m2
13:04 12.2 °C 11.6 °C 1013.4 hPa NNE 0.2 km/h 8 km/h 96% 0 mm 116 W/m2
13:09 12.2 °C 11.6 °C 1013.4 hPa North 0.3 km/h 4.8 km/h 96% 0 mm 121 W/m2
13:14 12.2 °C 11.6 °C 1013.4 hPa NE 0.3 km/h 4.8 km/h 96% 0 mm 90 W/m2
13:19 12.2 °C 11.6 °C 1013.1 hPa NE 0.8 km/h 4.8 km/h 96% 0 mm 95 W/m2
13:24 12.1 °C 11.4 °C 1013.1 hPa East 0.3 km/h 4.8 km/h 96% 0 mm 84 W/m2
13:29 12.1 °C 11.4 °C 1013.1 hPa ENE 0.2 km/h 4.8 km/h 96% 0 mm 65 W/m2
13:34 12 °C 11.4 °C 1013.1 hPa NNE 0.2 km/h 4.8 km/h 96% 0 mm 63 W/m2
13:39 12 °C 11.4 °C 1013.1 hPa North 0.6 km/h 3.2 km/h 96% 0 mm 63 W/m2
13:44 12 °C 11.4 °C 1013.1 hPa NNE 0.3 km/h 8 km/h 96% 0 mm 56 W/m2
13:49 12 °C 11.4 °C 1013.1 hPa ENE 0.6 km/h 8 km/h 96% 0 mm 60 W/m2
13:54 11.9 °C 11.3 °C 1012.8 hPa NNE 0.5 km/h 8 km/h 96% 0 mm 65 W/m2
13:59 11.8 °C 11.2 °C 1012.8 hPa ENE 0.6 km/h 8 km/h 96% 0 mm 69 W/m2
14:04 11.8 °C 11.2 °C 1012.8 hPa NE 1 km/h 8 km/h 96% 0 mm 54 W/m2
14:09 11.8 °C 11.2 °C 1012.8 hPa Calm   6.4 km/h 96% 0 mm 60 W/m2
14:14 11.8 °C 11.2 °C 1012.8 hPa ENE 0.3 km/h 6.4 km/h 96% 0 mm 60 W/m2
14:19 11.8 °C 11.2 °C 1012.8 hPa NNE 0.2 km/h 6.4 km/h 96% 0 mm 62 W/m2
14:24 11.9 °C 11.3 °C 1012.8 hPa North 0.2 km/h 6.4 km/h 96% 0 mm 54 W/m2
14:29 11.9 °C 11.3 °C 1012.8 hPa North 0.2 km/h 6.4 km/h 96% 0 mm 62 W/m2
14:34 11.9 °C 11.3 °C 1012.8 hPa Calm   6.4 km/h 96% 0 mm 53 W/m2
14:39 11.8 °C 11.2 °C 1012.8 hPa Calm   1.6 km/h 96% 0 mm 49 W/m2
14:44 11.8 °C 11.2 °C 1012.8 hPa NNE 0.8 km/h 6.4 km/h 96% 0 mm 40 W/m2
14:49 11.9 °C 11.3 °C 1012.8 hPa North 0.2 km/h 6.4 km/h 96% 0 mm 39 W/m2
14:54 11.9 °C 11.3 °C 1012.4 hPa Calm   6.4 km/h 96% 0 mm 35 W/m2
14:59 11.9 °C 11.3 °C 1012.8 hPa NE 0.3 km/h 6.4 km/h 96% 0 mm 49 W/m2
15:04 11.9 °C 11.3 °C 1012.8 hPa ENE 0.3 km/h 6.4 km/h 96% 0 mm 49 W/m2
15:09 11.9 °C 11.3 °C 1012.4 hPa Calm   4.8 km/h 96% 0 mm 47 W/m2
15:14 11.9 °C 11.3 °C 1012.8 hPa ENE 0.2 km/h 4.8 km/h 96% 0 mm 42 W/m2
15:19 11.9 °C 11.3 °C 1012.8 hPa ENE 0.2 km/h 4.8 km/h 96% 0 mm 40 W/m2
15:24 11.9 °C 11.3 °C 1012.8 hPa ENE 0.2 km/h 4.8 km/h 96% 0 mm 44 W/m2
15:29 11.9 °C 11.3 °C 1012.8 hPa ENE 0.5 km/h 4.8 km/h 96% 0 mm 40 W/m2
15:34 11.9 °C 11.3 °C 1012.8 hPa Calm   4.8 km/h 96% 0 mm 40 W/m2
15:39 11.9 °C 11.3 °C 1012.8 hPa Calm     96% 0 mm 39 W/m2
15:44 12 °C 11.4 °C 1012.8 hPa Calm     96% 0 mm 46 W/m2
15:49 12 °C 11.4 °C 1012.4 hPa Calm   1.6 km/h 96% 0 mm 44 W/m2
15:54 12 °C 11.4 °C 1012.4 hPa Calm   1.6 km/h 96% 0 mm 46 W/m2
15:59 12.1 °C 11.4 °C 1012.4 hPa NE 0.2 km/h 3.2 km/h 96% 0 mm 42 W/m2
16:00 12.1 °C 11.4 °C 1012.1 hPa Calm   3.2 km/h 96% 0 mm 32 W/m2
16:09 12.1 °C 11.4 °C 1012.1 hPa North 0.5 km/h 4.8 km/h 96% 0 mm 32 W/m2
16:14 12 °C 11.4 °C 1012.1 hPa North 0.5 km/h 4.8 km/h 96% 0 mm 32 W/m2
16:19 12 °C 11.4 °C 1012.1 hPa North 0.3 km/h 4.8 km/h 96% 0 mm 32 W/m2
16:24 12 °C 11.4 °C 1012.1 hPa Calm   4.8 km/h 96% 0 mm 23 W/m2
16:29 12 °C 11.4 °C 1012.1 hPa NNW 0.3 km/h 4.8 km/h 96% 0 mm 25 W/m2
16:34 11.9 °C 11.3 °C 1012.1 hPa NW 1.3 km/h 11.3 km/h 96% 0 mm 19 W/m2
16:39 11.9 °C 11.3 °C 1012.1 hPa NW 0.3 km/h 11.3 km/h 96% 0 mm 16 W/m2
16:44 11.9 °C 11.3 °C 1012.1 hPa NW 0.6 km/h 11.3 km/h 96% 0 mm 12 W/m2
16:49 11.9 °C 11.2 °C 1012.1 hPa NNW 0.5 km/h 11.3 km/h 96% 0 mm 14 W/m2
16:54 11.8 °C 11.2 °C 1012.1 hPa NNW 0.2 km/h 11.3 km/h 96% 0 mm 12 W/m2
16:59 11.8 °C 11.2 °C 1012.1 hPa NNW 0.2 km/h 11.3 km/h 96% 0 mm 11 W/m2
17:04 11.8 °C 11.2 °C 1012.1 hPa NNW 0.3 km/h 11.3 km/h 96% 0 mm 11 W/m2
17:09 11.8 °C 11.2 °C 1012.1 hPa NNW 0.8 km/h 8 km/h 96% 0 mm 9 W/m2
17:14 11.8 °C 11.2 °C 1012.1 hPa NNW 0.2 km/h 8 km/h 96% 0 mm 7 W/m2
17:19 11.8 °C 11.2 °C 1012.4 hPa Calm   8 km/h 96% 0 mm 5 W/m2
17:24 11.8 °C 11.2 °C 1012.4 hPa NNW 0.5 km/h 8 km/h 96% 0 mm 5 W/m2
17:29 11.7 °C 11.1 °C 1012.1 hPa North 0.3 km/h 8 km/h 96% 0 mm 7 W/m2
17:34 11.7 °C 11.1 °C 1012.1 hPa NE 0.2 km/h 8 km/h 96% 0 mm 7 W/m2
17:39 11.7 °C 11.1 °C 1012.1 hPa Calm   1.6 km/h 96% 0 mm 5 W/m2
17:44 11.7 °C 11.1 °C 1012.1 hPa North 0.8 km/h 8 km/h 96% 0 mm 0 W/m2
17:49 11.7 °C 11.1 °C 1012.1 hPa NNE 0.3 km/h 8 km/h 96% 0 mm 0 W/m2
17:54 11.7 °C 11.1 °C 1012.1 hPa NNE 0.2 km/h 8 km/h 96% 0 mm 0 W/m2
17:59 11.7 °C 11.1 °C 1012.1 hPa NNE 0.2 km/h 8 km/h 96% 0 mm 0 W/m2
18:04 11.7 °C 11.1 °C 1012.1 hPa Calm   8 km/h 96% 0 mm 0 W/m2
18:09 11.6 °C 11 °C 1012.1 hPa NW 0.5 km/h 4.8 km/h 96% 0 mm 0 W/m2
18:14 11.6 °C 11 °C 1012.1 hPa NW 0.6 km/h 8 km/h 96% 0 mm 0 W/m2
18:19 11.6 °C 11 °C 1011.7 hPa NW 1 km/h 8 km/h 96% 0 mm 0 W/m2
18:24 11.6 °C 10.9 °C 1011.7 hPa NNW 0.3 km/h 8 km/h 96% 0 mm 0 W/m2
18:29 11.6 °C 10.9 °C 1011.7 hPa NNE 0.2 km/h 8 km/h 96% 0 mm 0 W/m2
18:34 11.6 °C 10.9 °C 1011.7 hPa NNW 0.5 km/h 8 km/h 96% 0 mm 0 W/m2
18:39 11.5 °C 10.9 °C 1011.7 hPa NNW 0.8 km/h 6.4 km/h 96% 0 mm 0 W/m2
18:44 11.5 °C 10.9 °C 1011.7 hPa NE 0.2 km/h 6.4 km/h 96% 0 mm 0 W/m2
18:49 11.5 °C 10.9 °C 1011.7 hPa NNE 0.2 km/h 6.4 km/h 96% 0 mm 0 W/m2
18:54 11.5 °C 10.9 °C 1011.7 hPa North 0.5 km/h 6.4 km/h 96% 0 mm 0 W/m2
18:59 11.5 °C 10.9 °C 1011.7 hPa Calm   6.4 km/h 96% 0 mm 0 W/m2
19:04 11.5 °C 10.9 °C 1011.7 hPa North 0.2 km/h 6.4 km/h 96% 0 mm 0 W/m2
19:09 11.5 °C 10.9 °C 1012.1 hPa NNW 0.3 km/h 6.4 km/h 96% 0 mm 0 W/m2
19:14 11.5 °C 10.9 °C 1012.1 hPa NNW 0.2 km/h 6.4 km/h 96% 0 mm 0 W/m2
19:19 11.5 °C 10.9 °C 1012.1 hPa NNW 0.2 km/h 6.4 km/h 96% 0 mm 0 W/m2
19:24 11.5 °C 10.9 °C 1012.1 hPa NNE 0.2 km/h 6.4 km/h 96% 0 mm 0 W/m2
19:29 11.5 °C 10.9 °C 1011.7 hPa Calm   6.4 km/h 96% 0 mm 0 W/m2
19:34 11.4 °C 10.8 °C 1011.7 hPa NE 0.2 km/h 6.4 km/h 96% 0 mm 0 W/m2
19:39 11.4 °C 10.8 °C 1011.7 hPa Calm   3.2 km/h 96% 0 mm 0 W/m2
19:44 11.4 °C 10.8 °C 1011.7 hPa NNE 0.5 km/h 4.8 km/h 96% 0 mm 0 W/m2
19:49 11.4 °C 10.8 °C 1012.1 hPa NE 0.5 km/h 6.4 km/h 96% 0 mm 0 W/m2
19:54 11.4 °C 10.8 °C 1012.1 hPa NE 0.2 km/h 6.4 km/h 96% 0 mm 0 W/m2
19:59 11.4 °C 10.8 °C 1012.1 hPa NNE 0.2 km/h 6.4 km/h 96% 0 mm 0 W/m2
20:00 11.4 °C 10.8 °C 1011.7 hPa Calm   6.4 km/h 96% 0 mm 0 W/m2
20:09 11.4 °C 10.8 °C 1012.1 hPa NNW 0.3 km/h 4.8 km/h 96% 0 mm 0 W/m2
20:14 11.4 °C 10.8 °C 1012.1 hPa NNW 0.6 km/h 6.4 km/h 96% 0 mm 0 W/m2
20:19 11.4 °C 10.8 °C 1012.1 hPa NE 0.6 km/h 6.4 km/h 96% 0 mm 0 W/m2
20:24 11.4 °C 10.8 °C 1011.7 hPa NE 0.2 km/h 6.4 km/h 96% 0 mm 0 W/m2
20:29 11.4 °C 10.8 °C 1011.7 hPa Calm   6.4 km/h 96% 0 mm 0 W/m2
20:34 11.4 °C 10.8 °C 1011.4 hPa ENE 1.4 km/h 9.7 km/h 96% 0 mm 0 W/m2
20:39 11.3 °C 10.7 °C 1011.4 hPa NE 0.8 km/h 9.7 km/h 96% 0 mm 0 W/m2
20:44 11.3 °C 10.7 °C 1011.4 hPa NNE 0.8 km/h 9.7 km/h 96% 0 mm 0 W/m2
20:49 11.3 °C 10.7 °C 1011.4 hPa Calm   9.7 km/h 96% 0 mm 0 W/m2
20:54 11.3 °C 10.7 °C 1011.4 hPa ENE 0.3 km/h 9.7 km/h 96% 0 mm 0 W/m2
20:59 11.3 °C 10.7 °C 1011.4 hPa NNE 0.2 km/h 9.7 km/h 96% 0 mm 0 W/m2
21:04 11.3 °C 10.7 °C 1011.4 hPa East 0.5 km/h 9.7 km/h 96% 0 mm 0 W/m2
21:09 11.3 °C 10.7 °C 1011.4 hPa NE 0.3 km/h 6.4 km/h 96% 0 mm 0 W/m2
21:14 11.2 °C 10.6 °C 1011.4 hPa NE 0.2 km/h 6.4 km/h 96% 0 mm 0 W/m2
21:19 11.2 °C 10.6 °C 1011.4 hPa ENE 0.3 km/h 6.4 km/h 96% 0 mm 0 W/m2
21:24 11.2 °C 10.6 °C 1011.4 hPa Calm   6.4 km/h 96% 0 mm 0 W/m2
21:29 11.2 °C 10.6 °C 1011.4 hPa NNW 0.3 km/h 9.7 km/h 96% 0 mm 0 W/m2
21:34 11.2 °C 10.6 °C 1011.4 hPa North 0.6 km/h 9.7 km/h 96% 0 mm 0 W/m2
21:39 11.1 °C 10.5 °C 1011.1 hPa NNW 0.3 km/h 8 km/h 96% 0 mm 0 W/m2
21:44 11.1 °C 10.5 °C 1011.4 hPa NNE 0.5 km/h 8 km/h 96% 0 mm 0 W/m2
21:49 11.1 °C 10.5 °C 1011.4 hPa ENE 0.3 km/h 8 km/h 96% 0 mm 0 W/m2
21:54 11.1 °C 10.4 °C 1011.1 hPa NE 0.5 km/h 8 km/h 96% 0 mm 0 W/m2
21:59 11.1 °C 10.4 °C 1011.1 hPa NE 0.8 km/h 9.7 km/h 96% 0 mm 0 W/m2
22:04 11 °C 10.4 °C 1011.1 hPa ENE 0.6 km/h 9.7 km/h 96% 0 mm 0 W/m2
22:09 10.9 °C 10.3 °C 1011.1 hPa ENE 0.3 km/h 4.8 km/h 96% 0 mm 0 W/m2
22:14 10.9 °C 10.3 °C 1011.1 hPa NNW 0.6 km/h 9.7 km/h 96% 0 mm 0 W/m2
22:19 10.9 °C 10.3 °C 1011.1 hPa NE 0.8 km/h 9.7 km/h 96% 0 mm 0 W/m2
22:24 10.9 °C 10.3 °C 1011.1 hPa NNE 0.2 km/h 9.7 km/h 96% 0 mm 0 W/m2
22:29 10.8 °C 10.2 °C 1011.1 hPa NE 0.6 km/h 9.7 km/h 96% 0 mm 0 W/m2
22:34 10.8 °C 10.2 °C 1011.1 hPa NE 0.3 km/h 9.7 km/h 96% 0 mm 0 W/m2
22:39 10.8 °C 10.2 °C 1011.1 hPa NNE 0.6 km/h 8 km/h 96% 0 mm 0 W/m2
22:44 10.7 °C 10.1 °C 1011.1 hPa NNE 1.1 km/h 8 km/h 96% 0 mm 0 W/m2
22:49 10.7 °C 10.1 °C 1010.7 hPa ENE 0.5 km/h 8 km/h 96% 0 mm 0 W/m2
22:54 10.7 °C 10.1 °C 1010.7 hPa NE 0.8 km/h 8 km/h 96% 0 mm 0 W/m2
22:59 10.6 °C 10 °C 1010.7 hPa NNE 0.6 km/h 8 km/h 96% 0 mm 0 W/m2
23:04 10.6 °C 10 °C 1010.7 hPa North 1.6 km/h 20.9 km/h 96% 0 mm 0 W/m2
23:09 10.6 °C 9.9 °C 1010.4 hPa North 1 km/h 20.9 km/h 96% 0 mm 0 W/m2
23:14 10.6 °C 9.9 °C 1010.4 hPa NNE 0.6 km/h 20.9 km/h 96% 0 mm 0 W/m2
23:19 10.4 °C 9.8 °C 1010.4 hPa NNW 0.8 km/h 20.9 km/h 96% 0 mm 0 W/m2
23:24 10.4 °C 9.8 °C 1010.4 hPa NNW 1.1 km/h 20.9 km/h 96% 0 mm 0 W/m2
23:29 10.4 °C 9.8 °C 1010.4 hPa NNW 0.6 km/h 20.9 km/h 96% 0 mm 0 W/m2
23:34 10.4 °C 9.8 °C 1010.4 hPa NNE 0.3 km/h 20.9 km/h 96% 0.25 mm 0 W/m2
23:39 10.3 °C 9.7 °C 1010.4 hPa NNE 1 km/h 8 km/h 96% 0.25 mm 0 W/m2
23:44 10.3 °C 9.7 °C 1010.4 hPa NNE 0.5 km/h 9.7 km/h 96% 0.25 mm 0 W/m2
23:49 10.3 °C 9.7 °C 1010.4 hPa NW 1.6 km/h 11.3 km/h 96% 0.25 mm 0 W/m2
23:54 10.3 °C 9.7 °C 1010 hPa NNE 0.8 km/h 16.1 km/h 96% 0.25 mm 0 W/m2
23:59 10.2 °C 9.7 °C 1010 hPa NNW 0.5 km/h 16.1 km/h 96% 0.51 mm 0 W/m2
Hartford County Weather
Compliments of Weather Underground - 2 mb